Карточка аэропорта UUDL

Внимание!
Информация на этой странице в стадии наполнения.
Если вы не увидели какой-то информации, или заметили неточность - пожалуйста сообщите нам!
Спасибо!
Команда RU-STAFF
Название аэропортаТуношна
Название аэропорта (англ.)Tunoshna
Превышение305 ft. (93 m.)
Координаты57°33.636', 40°9.438'
Высота перехода700 m
Эшелон переходаFL050
Коды ответчика2750-2757
Зона ОрВДМосква РПИ (UUWV)
Данные METARUUDL 091000Z 20002MPS 9999 SCT010 OVC019 M02/M03 Q1032 R23/590335 NOSIG RMK QFE765
Проноз погоды (TAF)UUDL 090800Z 0909/1009 21003MPS 8000 BKN010 TXM00/0912Z TNM04/1003Z TEMPO 0909/0912 -FZDZ OVC005
NOTAMshow/hide NOTAM
AWOS   TABLE

Информация о ВПП

ВПП Длина ВПП (м.) Покрытие Курс ВПП Частота ILS
053010Асфальтобетон51 
233010Асфальтобетон231110.5

Диспетчерские позиции




Спутниковое изображение